9M4GHZ-13 Weather Reports


time (UTC)temp
C
wind
direction
speed
KPH
gust
KPH
rain 1hr
cm
rain 24hr
cm
rain mn
cm
humidity
%
barometer
mb
20260509191005 26 135 0.0 1.6 0.00 0.00 0.00 94 1006.3
20260509190006 26 135 0.0 1.6 0.00 0.00 0.00 93 1006.4
20260509185004 26 135 1.6 1.6 0.00 0.00 0.00 93 1006.5
20260509184005 26 157 0.0 1.6 0.00 0.00 0.00 92 1006.5
20260509183005 26 225 0.0 0.0 0.00 0.00 0.00 92 1006.5
20260509182005 26 225 1.6 1.6 0.00 0.00 0.00 92 1006.8
20260509181004 26 225 0.0 1.6 0.00 0.00 0.00 92 1006.9
20260509180004 26 180 1.6 1.6 0.00 0.00 0.00 92 1007.0
20260509175005 26 202 1.6 3.2 0.00 0.00 0.00 91 1007.3
20260509174005 26 247 1.6 3.2 0.00 0.00 0.00 91 1007.4
20260509173005 26 247 0.0 1.6 0.00 0.00 0.00 91 1007.6
20260509172004 26 247 1.6 1.6 0.00 0.00 0.00 90 1007.9
20260509171004 26 247 1.6 1.6 0.00 0.00 0.00 91 1008.0
20260509170005 26 247 0.0 1.6 0.00 0.00 0.00 91 1008.1
20260509165005 26 247 0.0 1.6 0.00 0.00 0.00 90 1008.2
20260509164005 26 247 1.6 1.6 0.00 0.00 0.00 90 1008.4
20260509163005 27 270 1.6 3.2 0.00 0.00 0.00 89 1008.5
20260509162005 27 270 3.2 4.8 0.00 0.00 0.00 88 1008.9
20260509161004 27 247 3.2 4.8 0.00 0.00 0.00 88 1009.0
20260509160005 27 270 1.6 3.2 0.00 0.00 0.00 89 1008.8
20260509155004 27 157 0.0 1.6 0.00 0.00 0.00 88 1009.0
20260509154007 27 157 0.0 1.6 0.00 0.00 0.00 87 1009.1
20260509153005 27 157 0.0 0.0 0.00 0.00 0.00 86 1008.9
20260509152003 27 157 0.0 0.0 0.00 0.00 0.00 87 1009.1
20260509151005 27 157 0.0 0.0 0.00 0.00 0.00 87 1009.0
20260509150016 27 157 0.0 0.0 0.00 0.00 0.00 86 1008.9
20260509145004 27 157 0.0 1.6 0.00 0.00 0.00 85 1008.9
20260509144005 27 157 0.0 1.6 0.00 0.00 0.00 84 1008.7
20260509143006 27 135 1.6 3.2 0.00 0.00 0.00 84 1008.8
20260509142004 27 157 1.6 3.2 0.00 0.00 0.00 83 1008.7
20260509141005 27 112 0.0 1.6 0.00 0.00 0.00 86 1008.8
20260509140006 27 112 1.6 3.2 0.00 0.00 0.00 86 1008.7
20260509135004 27 292 0.0 0.0 0.00 0.00 0.00 85 1008.7
20260509134005 27 292 0.0 1.6 0.00 0.00 0.00 84 1008.7
20260509133005 27 292 0.0 1.6 0.00 0.00 0.00 83 1008.6
20260509132004 27 315 0.0 1.6 0.00 0.00 0.00 83 1008.6
20260509131005 27 292 0.0 0.0 0.00 0.00 0.00 82 1008.5
20260509130005 28 270 0.0 1.6 0.00 0.00 0.00 81 1008.5
20260509125003 28 225 0.0 1.6 0.00 0.00 0.00 81 1008.4
20260509124004 28 112 0.0 1.6 0.00 0.00 0.00 81 1008.2
20260509123005 28 292 0.0 1.6 0.00 0.00 0.00 80 1008.3
20260509122004 28 270 1.6 3.2 0.00 0.00 0.00 79 1008.1
20260509121006 28 292 1.6 3.2 0.00 0.00 0.00 78 1007.9
20260509120005 28 315 4.8 6.4 0.00 0.00 0.00 79 1007.6
20260509115003 28 292 4.8 9.7 0.00 0.00 0.00 79 1007.2
20260509114005 28 337 8.0 14.5 0.00 0.00 0.00 80 1007.0
20260509113006 28 315 3.2 6.4 0.00 0.00 0.00 81 1007.0
20260509112004 28 0 4.8 9.7 0.00 0.00 0.00 82 1006.8
20260509111006 28 315 6.4 9.7 0.00 0.00 0.00 82 1006.7
20260509110004 28 292 3.2 4.8 0.00 0.00 0.00 82 1006.7
20260509105004 28 337 1.6 4.8 0.00 0.00 0.00 82 1006.7
20260509104005 28 292 6.4 9.7 0.00 0.00 0.00 81 1006.5
20260509103005 28 315 4.8 6.4 0.00 0.00 0.00 81 1006.4
20260509102004 -17 0 0.0 0.0 0.00 0.00 0.00 100
20260509101005 28 315 4.8 9.7 0.00 0.00 0.00 81 1006.4
20260509100006 29 292 4.8 6.4 0.00 0.00 0.00 80 1006.2
20260509095004 29 337 4.8 6.4 0.00 0.00 0.00 79 1006.0
20260509094005 29 0 9.7 14.5 0.00 0.00 0.00 79 1005.9
20260509093005 29 337 4.8 6.4 0.00 0.00 0.00 80 1006.0
20260509092004 29 315 4.8 12.9 0.00 0.00 0.00 79 1005.8
20260509091005 29 0 6.4 12.9 0.00 0.00 0.00 78 1005.6
20260509090005 30 337 8.0 9.7 0.00 0.00 0.00 77 1005.5
20260509085005 30 292 8.0 12.9 0.00 0.00 0.00 77 1005.5
20260509084005 30 337 9.7 17.7 0.00 0.00 0.00 74 1005.4
20260509083005 30 337 9.7 9.7 0.00 0.00 0.00 73 1005.3
20260509082004 31 337 6.4 12.9 0.00 0.00 0.00 73 1005.4
20260509081005 31 270 8.0 12.9 0.00 0.00 0.00 72 1005.1
20260509080005 31 0 8.0 14.5 0.00 0.00 0.00 72 1005.3
20260509075003 30 337 12.9 17.7 0.00 0.00 0.00 73 1005.2
20260509074005 31 292 4.8 9.7 0.00 0.00 0.00 73 1005.3
20260509073005 31 315 8.0 9.7 0.00 0.00 0.00 73 1005.3
20260509072004 31 292 9.7 20.9 0.00 0.00 0.00 72 1005.6
20260509071005 30 315 14.5 20.9 0.00 0.00 0.00 70 1006.1
20260509070005 31 315 6.4 14.5 0.00 0.00 0.00 71 1006.1
20260509065003 31 315 14.5 19.3 0.00 0.00 0.00 70 1006.1
20260509064005 30 337 11.3 19.3 0.00 0.00 0.00 72 1006.1
20260509063006 30 337 11.3 17.7 0.00 0.00 0.00 74 1006.3
20260509062004 31 0 12.9 20.9 0.00 0.00 0.00 74 1006.3
20260509061005 31 337 9.7 17.7 0.00 0.00 0.00 74 1006.4
20260509060004 31 292 14.5 20.9 0.00 0.00 0.00 73 1006.5
20260509055004 31 315 9.7 14.5 0.00 0.00 0.00 71 1006.4
20260509054004 31 292 9.7 16.1 0.00 0.00 0.00 74 1006.7
20260509053005 30 315 9.7 16.1 0.00 0.00 0.00 75 1006.8
20260509052003 30 315 14.5 17.7 0.00 0.00 0.00 76 1007.1
20260509051005 30 315 9.7 14.5 0.00 0.00 0.00 76 1007.8
20260509050004 30 292 17.7 24.1 0.00 0.00 0.00 74 1008.0
20260509045005 31 315 17.7 24.1 0.00 0.00 0.00 72 1008.1
20260509044004 30 337 4.8 9.7 0.00 0.00 0.00 74 1008.1
20260509043004 32 315 12.9 16.1 0.00 0.00 0.00 69 1008.4
20260509042004 31 292 9.7 14.5 0.00 0.00 0.00 63 1008.7
20260509041005 32 270 16.1 20.9 0.00 0.00 0.00 63 1008.7
20260509040004 31 292 17.7 24.1 0.00 0.00 0.00 62 1008.8
20260509035004 31 315 9.7 14.5 0.00 0.00 0.00 65 1009.3
20260509034005 31 337 4.8 9.7 0.00 0.00 0.00 64 1009.1
20260509033005 31 22 9.7 14.5 0.00 0.00 0.00 63 1009.5
20260509032004 31 247 8.0 12.9 0.00 0.00 0.00 66 1009.4
20260509031005 31 315 9.7 16.1 0.00 0.00 0.00 68 1009.6
20260509030004 31 292 1.6 9.7 0.00 0.00 0.00 71 1009.5
20260509025003 30 135 4.8 9.7 0.00 0.00 0.00 72 1009.3
20260509024003 30 225 3.2 4.8 0.00 0.00 0.00 74 1009.5
20260509023004 29 270 4.8 6.4 0.00 0.00 0.00 77 1009.6
20260509022003 30 135 3.2 4.8 0.00 0.00 0.00 75 1009.7
20260509021005 29 292 0.0 1.6 0.00 0.00 0.00 78 1009.7
20260509020005 28 135 0.0 1.6 0.00 0.00 0.00 78 1010.1
20260509015004 28 292 3.2 6.4 0.00 0.00 0.00 80 1010.0
20260509014005 28 225 6.4 9.7 0.00 0.00 0.00 82 1010.4
20260509013004 27 157 3.2 4.8 0.00 0.00 0.00 84 1010.4
20260509012004 27 202 4.8 9.7 0.00 0.00 0.00 85 1010.4
20260509011004 27 157 4.8 9.7 0.00 0.00 0.00 86 1010.3
20260509010005 27 157 4.8 6.4 0.00 0.00 0.00 87 1010.1
20260509005004 27 247 3.2 4.8 0.00 0.00 0.00 88 1010.2
20260509004005 27 315 3.2 4.8 0.00 0.00 0.00 87 1010.1
20260509003006 26 270 1.6 3.2 0.00 0.00 0.00 89 1010.2
20260509002005 26 270 0.0 1.6 0.00 0.00 0.00 91 1010.0
20260509001004 26 270 3.2 4.8 0.00 0.00 0.00 92 1009.9
20260509000005 25 247 4.8 6.4 0.00 0.00 0.00 93 1009.7
20260508235004 25 202 3.2 4.8 0.00 0.00 0.00 94 1009.5
20260508234004 25 157 1.6 3.2 0.00 0.00 0.00 94 1009.3
20260508233005 25 112 1.6 3.2 0.00 0.00 0.00 95 1009.4
20260508232005 25 202 4.8 6.4 0.00 0.00 0.00 96 1009.3
20260508231005 25 157 4.8 9.7 0.00 0.00 0.00 96 1009.3
20260508230005 25 157 4.8 6.4 0.00 0.00 0.00 97 1009.0
20260508225005 25 157 1.6 3.2 0.00 0.00 0.00 97 1009.2
20260508224004 25 180 1.6 3.2 0.00 0.00 0.00 97 1009.1
20260508223005 25 157 3.2 3.2 0.00 0.00 0.00 97 1009.0
20260508222005 25 157 1.6 4.8 0.00 0.00 0.00 97 1008.6
20260508221005 25 157 1.6 3.2 0.00 0.00 0.00 97 1008.6
20260508220005 25 202 0.0 1.6 0.00 0.00 0.00 97 1008.4
20260508215003 25 180 0.0 1.6 0.00 0.00 0.00 97 1008.2
20260508214005 25 157 0.0 1.6 0.00 0.00 0.00 97 1008.2
20260508213006 25 180 3.2 4.8 0.00 0.00 0.00 97 1007.9
20260508212005 25 157 3.2 4.8 0.00 0.00 0.00 97 1007.8
20260508211004 25 135 1.6 1.6 0.00 0.00 0.00 98 1007.7
20260508210004 25 135 1.6 3.2 0.00 0.00 0.00 98 1007.6
20260508205004 25 225 0.0 1.6 0.00 0.00 0.00 98 1007.5
20260508204005 25 157 1.6 3.2 0.00 0.00 0.00 97 1007.4
20260508203005 25 202 3.2 3.2 0.00 0.00 0.00 97 1007.4
20260508202005 25 180 0.0 1.6 0.00 0.00 0.00 97 1007.3
20260508201004 25 225 1.6 3.2 0.00 0.00 0.00 97 1007.3
20260508195004 25 270 1.6 3.2 0.00 0.00 0.00 97 1007.5
20260508194005 25 270 0.0 3.2 0.00 0.00 0.00 97 1007.3
20260508193005 25 270 0.0 1.6 0.00 0.00 0.00 97 1007.3
20260508192005 25 292 1.6 3.2 0.00 0.00 0.00 97 1007.5